Location: Unspecified
(35.6961°N, 0.0000°E)
Time: 02:47:08
(UTC+00:00)

S-56A Canister/Altair - Pass Details

Date: 01 October 2020
Orbit: 632 x 2500 km, 38.9° (Epoch: 20 October)

Event Time Altitude Azimuth Distance (km) Brightness Sun altitude
Rises 19:53:53 0° 291° (WNW) 5,902 13.3 -27.1°
Reaches altitude 10° 19:58:17 10° 287° (WNW) 4,688 12.5 -28.0°
Maximum altitude 20:09:46 45° 221° (SW) 2,166 9.8 -30.2°
Enters shadow 20:13:21 33° 175° (S) 2,314 9.7 -30.9°
